This demonstration page uses our WeatherBlox Daily Observations layout. Learn more.

38.89511, -77.03637

Hourly Observations for February 26, 2015

Temp ( °F °C ) Dew Point ( °F °C ) Humidity (%) Winds ( mph kmh ) Pressure ( in mb ) Visibility ( mi km ) Precip ( " mm )
12:52 am 00:52 Cloudy 36 2 18 -8 48 48 Calm 29.94 1014 10 16.09344 0 0
1:52 am 01:52 Cloudy 36 2 19 -7 52 52 S 7 11 29.94 1014 10 16.09344 0 0
2:52 am 02:52 Cloudy 36 2 19 -7 52 52 N 3 6 29.91 1013 10 16.09344 0 0
3:52 am 03:52 Cloudy with Light Snow 36 2 19 -7 52 52 E 7 11 29.88 1012 10 16.09344 0.001 0.001
4:52 am 04:52 Cloudy with Light Snow 34 1 21 -6 60 60 NNE 8 13 29.91 1013 7 11.265408 0.001 0.001
4:55 am 04:55 Cloudy with Light Snow 34 1 21 -6 60 60 NNE 8 13 29.91 1013 5 8.04672 0.001 0.001
5:01 am 05:01 Cloudy with Light Snow 34 1 23 -5 65 65 NNE 8 13 29.91 1013 1.75 2.816352 0.001 0.001
5:21 am 05:21 Cloudy with Light Snow 32 0 25 -4 75 75 NE 8 13 29.91 1013 1.25 2.01168 0.01 0.254
5:52 am 05:52 Mostly Cloudy with Scattered Snow Showers 30 -1 27 -3 86 86 NNE 7 11 29.91 1013 1 1.609344 0.02 0.508
6:04 am 06:04 Cloudy with Light Snow 30 -1 27 -3 86 86 NNE 9 15 29.91 1013 1.25 2.01168 0 0
6:16 am 06:16 Cloudy with Light Snow 30 -1 27 -3 86 86 NNE 6 9 29.91 1013 1 1.609344 0 0
6:50 am 06:50 Cloudy with Snow 30 -1 27 -3 86 86 NNE 7 11 29.91 1013 0.5 0.804672 0 0
6:52 am 06:52 Cloudy with Snow 30 -1 27 -3 86 86 NNE 8 13 29.91 1013 0.5 0.804672 0.04 1.016
7:43 am 07:43 Cloudy with Light Snow 32 0 27 -3 80 80 NNE 9 15 29.94 1014 0.75 1.207008 0.03 0.762
7:48 am 07:48 Cloudy with Snow 32 0 27 -3 80 80 NNE 9 15 29.91 1013 0.5 0.804672 0 0
7:52 am 07:52 Cloudy with Snow 32 0 27 -3 80 80 NNE 9 15 29.94 1014 0.5 0.804672 0.04 1.016
7:57 am 07:57 Cloudy with Light Snow 32 0 27 -3 80 80 NNE 9 15 29.94 1014 0.75 1.207008 0.001 0.001
8:52 am 08:52 Cloudy with Light Snow 32 0 27 -3 80 80 NNE 9 15 29.94 1014 0.75 1.207008 0.03 0.762
9:23 am 09:23 Cloudy with Light Snow 32 0 27 -3 80 80 NE 14 22 29.94 1014 1 1.609344 0.01 0.254
9:38 am 09:38 Cloudy with Light Snow 32 0 27 -3 80 80 NNE 14 22 29.94 1014 1 1.609344 0 0
9:52 am 09:52 Cloudy with Light Snow 32 0 25 -4 75 75 NNE 16 26 29.94 1014 1.5 2.414016 0.01 0.254
9:56 am 09:56 Cloudy with Light Snow 32 0 25 -4 75 75 NNE 15 24 29.94 1014 2 3.218688 0.001 0.001
10:10 am 10:10 Cloudy with Haze 32 0 25 -4 75 75 NE 14 22 29.94 1014 4 6.437376 0 0
10:24 am 10:24 Cloudy with Light Snow 32 0 25 -4 75 75 NE 14 22 29.91 1013 4 6.437376 0 0
10:52 am 10:52 Cloudy 34 1 25 -4 70 70 N 13 20 29.91 1013 7 11.265408 0.001 0.001
11:52 am 11:52 Cloudy 34 1 25 -4 70 70 NNE 12 19 29.91 1013 10 16.09344 0 0
12:46 pm 12:46 Cloudy 36 2 25 -4 65 65 NE 10 17 29.91 1013 10 16.09344 0 0
12:52 pm 12:52 Cloudy 36 2 25 -4 65 65 NE 8 13 29.91 1013 10 16.09344 0 0
1:52 pm 13:52 Cloudy 37 3 25 -4 60 60 N 13 20 29.94 1014 10 16.09344 0 0
2:52 pm 14:52 Mostly Cloudy 37 3 23 -5 56 56 N 8 13 29.94 1014 10 16.09344 0 0
3:52 pm 15:52 Mostly Cloudy 39 4 23 -5 52 52 N 7 11 29.97 1015 10 16.09344 0 0
4:52 pm 16:52 Cloudy 37 3 23 -5 56 56 N 6 9 30 1016 10 16.09344 0 0
5:52 pm 17:52 Cloudy 37 3 21 -6 52 52 N 6 9 30.03 1017 10 16.09344 0 0
6:52 pm 18:52 Mostly Cloudy 36 2 21 -6 56 56 NE 3 6 30.06 1018 10 16.09344 0 0
7:52 pm 19:52 Cloudy 36 2 21 -6 56 56 Calm 30.09 1019 10 16.09344 0 0
8:52 pm 20:52 Cloudy 34 1 25 -4 70 70 SE 7 11 30.12 1020 10 16.09344 0 0
9:52 pm 21:52 Cloudy 34 1 21 -6 60 60 Calm 30.12 1020 10 16.09344 0 0
10:52 pm 22:52 Cloudy 34 1 21 -6 60 60 SSE 5 7 30.15 1021 10 16.09344 0 0
11:52 pm 23:52 Cloudy 34 1 23 -5 65 65 S 3 6 30.18 1022 10 16.09344 0 0

Powered by AerisWeather